Weather History for Hobart, OK

Change the Weather History Date:

Thursday, September 5, 2013

  Actual Average Record
Temperature  
Mean Temperature 84 °F -  
Max Temperature 100 °F 89 °F 108 °F (1998)
Min Temperature 69 °F 64 °F 55 °F (2011)
Cooling Degree Days 20    
Growing Degree Days 34 (Base 50)    
Moisture  
Dew Point 58 °F    
Average Humidity 47    
Maximum Humidity 76    
Minimum Humidity 20    
Precipitation  
Precipitation 0.00 in - - ()
Sea Level Pressure  
Sea Level Pressure 30.05 in    
Wind  
Wind Speed 7 mph (ESE)    
Max Wind Speed 13 mph    
Max Gust Speed 20 mph    
Visibility 10 miles    
Events      
Averages and records for this station are not official NWS values.
T = Trace of Precipitation, MM = Missing Value Source: NWS Daily Summary

Daily Weather History Graph

Daily Weather History Graph

Search for Another Location

Airport:

Trip Planner

Search our weather history database for the weather conditions in past years. The results will help you decide how hot, cold, wet, or windy it might be!

Date:

Astronomy

Sep. 05, 2013 Rise Set
Actual Time 7:12 AM CDT 7:56 PM CDT
Civil Twilight 6:46 AM CDT 8:22 PM CDT
Nautical Twilight 6:16 AM CDT 8:52 PM CDT
Astronomical Twilight 5:44 AM CDT 9:23 PM CDT
Moon 7:22 AM CDT (9/5) 7:53 PM CDT (9/5)
Length of Visible Light 13h 36m
Length of Day
12h 44m
New Moon, 0% of the Moon is Illuminated
Sep 5
New Moon
Sep 12
First Quarter
Sep 19
Full
Sep 26
Last Quarter
Oct 4
New

Hourly Weather History & Observations

Time (CDT) Temp. Heat Index Dew Point Humidity Pressure Visibility Wind Dir Wind Speed Gust Speed Precip Events Conditions
12:53 AM 73.0 °F - 59.0 °F 61% 30.06 in 10.0 mi ENE 9.2 mph - N/A   Clear
1:53 AM 72.0 °F - 60.1 °F 66% 30.05 in 10.0 mi East 5.8 mph - N/A   Clear
2:53 AM 71.1 °F - 61.0 °F 70% 30.05 in 10.0 mi Calm Calm - N/A   Clear
3:53 AM 71.1 °F - 60.1 °F 68% 30.05 in 10.0 mi East 5.8 mph - N/A   Clear
4:53 AM 70.0 °F - 61.0 °F 73% 30.04 in 10.0 mi East 4.6 mph - N/A   Clear
5:53 AM 70.0 °F - 62.1 °F 76% 30.04 in 10.0 mi East 3.5 mph - N/A   Clear
6:53 AM 69.1 °F - 61.0 °F 75% 30.06 in 10.0 mi East 5.8 mph - N/A   Clear
7:53 AM 70.0 °F - 62.1 °F 76% 30.08 in 10.0 mi East 3.5 mph - N/A   Clear
8:53 AM 77.0 °F - 64.0 °F 64% 30.09 in 10.0 mi ESE 4.6 mph - N/A   Clear
9:53 AM 84.9 °F 86.6 °F 64.9 °F 51% 30.09 in 10.0 mi South 10.4 mph - N/A   Clear
10:53 AM 89.1 °F 90.3 °F 64.0 °F 43% 30.10 in 10.0 mi South 8.1 mph - N/A   Clear
11:53 AM 93.9 °F 95.2 °F 63.0 °F 36% 30.09 in 10.0 mi South 10.4 mph - N/A   Clear
12:53 PM 93.9 °F 92.6 °F 57.0 °F 29% 30.08 in 10.0 mi Variable 5.8 mph 19.6 mph N/A   Clear
1:53 PM 98.1 °F - 50.0 °F 20% 30.06 in 10.0 mi SSW 8.1 mph - N/A   Partly Cloudy
2:53 PM 97.0 °F 94.6 °F 53.1 °F 23% 30.04 in 10.0 mi SSW 12.7 mph 16.1 mph N/A   Clear
3:53 PM 97.0 °F 94.6 °F 54.0 °F 23% 30.03 in 10.0 mi Calm Calm - N/A   Partly Cloudy
4:53 PM 100.0 °F - 52.0 °F 20% 30.01 in 10.0 mi SE 11.5 mph 18.4 mph N/A   Clear
5:53 PM 97.0 °F 94.6 °F 53.1 °F 23% 30.00 in 10.0 mi ESE 10.4 mph 16.1 mph N/A   Clear
6:53 PM 96.1 °F 93.5 °F 53.1 °F 23% 30.00 in 10.0 mi SE 10.4 mph - N/A   Clear
7:53 PM 90.0 °F 87.5 °F 53.1 °F 28% 30.00 in 10.0 mi ESE 10.4 mph - N/A   Clear
8:53 PM 84.0 °F 82.6 °F 54.0 °F 35% 30.01 in 10.0 mi SE 9.2 mph - N/A   Clear
9:53 PM 82.9 °F 82.4 °F 57.0 °F 41% 30.04 in 10.0 mi ESE 9.2 mph - N/A   Clear
10:53 PM 80.1 °F 80.4 °F 57.0 °F 45% 30.05 in 10.0 mi ESE 9.2 mph - N/A   Clear
11:53 PM 78.1 °F - 59.0 °F 52% 30.06 in 10.0 mi East 8.1 mph - N/A   Clear